Content
SEND FEEDBACK

Daily
Averages
Monthly
Summary
United States of America

OTTERTAIL, MINNESOTA


Home > North America > United States > Minnesota
Elevation: 1356 feet     Latitude: 46 25N     Longitude: 095 34W

WEATHER
 
SELECT A DAY
Number of Records: 458,686;   Date Range: 1/1/95 - 8/12/14
 
SHARE

PRINT THIS DATA

[ ← Previous Day ]
WEATHER ALMANAC - JANUARY 23, 2013
[ Next Day → ]
[ °C ]   °F
Weather ElementAverageHighLow
Temperature-4.2 °F5 °F (1:13 am)-14.8 °F (7:53 pm)
Dewpoint-11 °F-0.4 °F (12:33 am)-22 °F (6:33 pm)
Humidity72.9 %92 % (5:53 am)59 % (3:53 pm)
Barometer30.36 in30.63 in (10:53 pm)30.13 in (3:53 am)
Wind Speed12.3 mph27.6 mph (2:14 pm)
Wind Gust38 mph (1:53 pm)
Weather ElementAverage
Visibility7.3 mi
Wind DirectionWSW (258.5 °)

Weather ElementTotal
Precipitation---
Heating Degree Days69.9 (Base 65)
Averaged from 67 records on January 23, 2013
WEATHER CONDITIONS BREAKOUT
WIND DIRECTION BREAKOUT
WEATHER BY HOUR - JANUARY 23, 2013
[ °C ]   °F
Local TimeTemperatureDewpointHumidityBarometerVisibilityWind DirectionWind SpeedGust SpeedPrecipitationEventsConditions
12:33 AM3.2 °F-0.4 °F85 %30.16 in10.0 miSouth (170°)4.6 mphOvercast
12:53 AM3.2 °F-0.4 °F85 %30.16 in10.0 miSouth (180°)5.8 mphOvercast
1:13 AM5.0 °F-0.4 °F78 %30.16 in10.0 miSouth (180°)5.8 mphSnowLight Snow
1:33 AM5.0 °F-0.4 °F78 %30.15 in10.0 miSouth (180°)8.1 mphOvercast
1:53 AM5.0 °F-0.4 °F78 %30.14 in10.0 miSouth (180°)6.9 mphSnowLight Snow
2:13 AM3.2 °F-0.4 °F85 %30.14 in7.0 miSouth (180°)5.8 mphSnowLight Snow
2:33 AM3.2 °F-0.4 °F85 %30.14 in10.0 miSouth (190°)5.8 mphSnowLight Snow
2:53 AM3.2 °F-0.4 °F85 %30.14 in4.0 miSouth (180°)4.6 mphSnowLight Snow
3:13 AM3.2 °F-0.4 °F85 %30.15 in4.0 miSouth (180°)3.5 mphSnowLight Snow
3:33 AM3.2 °F-0.4 °F85 %30.14 in3.0 miSouth (170°)3.5 mphSnowLight Snow
3:53 AM3.2 °F-0.4 °F85 %30.13 in2.5 miSouth (170°)3.5 mphSnowLight Snow
4:13 AM3.2 °F-0.4 °F85 %30.13 in1.5 miSouth (190°)3.5 mphSnowLight Snow
4:33 AM3.2 °F-0.4 °F85 %30.13 in1.5 miSSW (200°)4.6 mphSnowLight Snow
4:53 AM3.2 °F-0.4 °F85 %30.13 in1.5 miSW (220°)4.6 mphSnowLight Snow
5:13 AM3.2 °F-0.4 °F85 %30.13 in1.5 miCalmSnowLight Snow
5:33 AM3.2 °F-0.4 °F85 %30.14 in1.0 miWSW (250°)3.5 mphSnowSnow
5:53 AM1.4 °F-0.4 °F92 %30.15 in1.2 miWest (270°)5.8 mphSnowLight Snow
6:13 AM3.2 °F-0.4 °F85 %30.15 in4.0 miWNW (290°)6.9 mphSnowLight Snow
6:53 AM1.4 °F-2.2 °F85 %30.17 in10.0 miNNW (330°)12.7 mphSnowLight Snow
7:13 AM1.4 °F-2.2 °F85 %30.18 in10.0 miNNW (330°)15.0 mphSnowLight Snow
7:34 AM-0.4 °F-4.0 °F85 %30.18 in10.0 miNNW (330°)12.7 mphScattered Clouds
7:53 AM-0.4 °F-5.8 °F78 %30.20 in10.0 miNNW (330°)12.7 mphClear
8:13 AM-0.4 °F-5.8 °F78 %30.21 in10.0 miNNW (330°)16.1 mphClear
8:33 AM-0.4 °F-5.8 °F78 %30.22 in7.0 miNNW (340°)21.9 mph28.8 mphSnowLight Snow
8:53 AM-0.4 °F-7.6 °F72 %30.23 in3.0 miNNW (340°)20.7 mph27.6 mphSnowLight Snow
9:14 AM-0.4 °F-7.6 °F72 %30.25 in10.0 miNNW (340°)17.3 mph25.3 mphClear
9:33 AM-0.4 °F-7.6 °F72 %30.27 in10.0 miNNW (340°)15.0 mph23.0 mphClear
9:53 AM-0.4 °F-7.6 °F72 %30.29 in10.0 miNorth (350°)16.1 mph21.9 mphSnowLight Snow
10:14 AM-0.4 °F-9.4 °F66 %30.30 in7.0 miNorth (350°)18.4 mph26.5 mphClear
10:33 AM-0.4 °F-9.4 °F66 %30.32 in7.0 miNorth (350°)19.6 mph27.6 mphClear
10:53 AM-2.2 °F-9.4 °F71 %30.32 in4.0 miNorth (360°)17.3 mph25.3 mphHaze
11:14 AM-2.2 °F-9.4 °F71 %30.34 in4.0 miNorth (350°)19.6 mph29.9 mphHaze
11:33 AM-2.2 °F-9.4 °F71 %30.35 in4.0 miNorth (350°)18.4 mph31.1 mphHaze
11:53 AM-2.2 °F-11.2 °F66 %30.36 in3.0 miNorth (360°)18.4 mph34.5 mphHaze
12:14 PM-2.2 °F-11.2 °F66 %30.36 in4.0 miNorth (350°)24.2 mph34.5 mphHaze
12:33 PM-2.2 °F-13.0 °F60 %30.36 in3.0 miNorth (360°)20.7 mph35.7 mphHaze
12:53 PM-2.2 °F-11.2 °F66 %30.38 in4.0 miNorth (350°)25.3 mph34.5 mphHaze
1:14 PM-4.0 °F-13.0 °F65 %30.39 in3.0 miNorth (350°)20.7 mph35.7 mphHaze
1:33 PM-4.0 °F-11.2 °F71 %30.39 in2.5 miNorth (350°)21.9 mph34.5 mphHaze
1:53 PM-4.0 °F-14.8 °F60 %30.39 in4.0 miNorth (350°)26.5 mph38.0 mphHaze
2:14 PM-4.0 °F-14.8 °F60 %30.41 in4.0 miNNW (340°)27.6 mph33.4 mphHaze
2:25 PM-5.8 °F-14.8 °F65 %30.41 in5.0 miNNW (340°)24.2 mph33.4 mphHaze
3:31 PM-7.6 °F-16.6 °F65 %30.46 in10.0 miNNW (340°)21.9 mph31.1 mphClear
3:53 PM-7.6 °F-18.4 °F59 %30.47 in10.0 miNorth (350°)16.1 mph32.2 mphClear
4:13 PM-7.6 °F-18.4 °F59 %30.48 in10.0 miNorth (350°)21.9 mph27.6 mphClear
4:33 PM-7.6 °F-18.4 °F59 %30.50 in10.0 miNNW (330°)21.9 mph28.8 mphClear
4:53 PM-9.4 °F-18.4 °F65 %30.51 in10.0 miNNW (340°)16.1 mph26.5 mphClear
5:13 PM-9.4 °F-20.2 °F59 %30.53 in10.0 miNNW (330°)19.6 mphClear
5:33 PM-9.4 °F-20.2 °F59 %30.53 in10.0 miNNW (340°)19.6 mph27.6 mphClear
5:53 PM-9.4 °F-20.2 °F59 %30.54 in10.0 miNorth (350°)15.0 mph21.9 mphClear
6:13 PM-11.2 °F-20.2 °F64 %30.55 in10.0 miNNW (340°)15.0 mph23.0 mphClear
6:33 PM-11.2 °F-22.0 °F59 %30.56 in10.0 miNorth (350°)15.0 mph19.6 mphClear
6:53 PM-11.2 °F-22.0 °F59 %30.56 in10.0 miNorth (350°)11.5 mph17.3 mphClear
7:13 PM-13.0 °F-22.0 °F64 %30.57 in10.0 miNorth (350°)9.2 mph16.1 mphClear
7:33 PM-13.0 °F-20.2 °F70 %30.57 in10.0 miNorth (350°)12.7 mphClear
7:53 PM-14.8 °F-20.2 °F77 %30.58 in10.0 miNorth (350°)10.4 mph17.3 mphClear
8:13 PM-14.8 °F-20.2 °F77 %30.58 in10.0 miNorth (10°)5.8 mphClear
8:33 PM-14.8 °F-20.2 °F77 %30.58 in10.0 miNorth (360°)6.9 mphClear
8:53 PM-14.8 °F-22.0 °F70 %30.58 in10.0 miNNE (20°)6.9 mphClear
9:13 PM-14.8 °F-22.0 °F70 %30.59 in10.0 miNorth (10°)6.9 mphClear
9:33 PM-14.8 °F-22.0 °F70 %30.61 in10.0 miNorth (360°)4.6 mphClear
9:53 PM-14.8 °F-22.0 °F70 %30.62 in10.0 miNorth (10°)4.6 mphClear
10:13 PM-14.8 °F-22.0 °F70 %30.62 in10.0 miNNE (20°)4.6 mphClear
10:33 PM-14.8 °F-22.0 °F70 %30.62 in10.0 miNorth (10°)3.5 mphClear
10:53 PM-14.8 °F-22.0 °F70 %30.63 in10.0 miNNE (20°)3.5 mphClear
11:13 PM-14.8 °F-22.0 °F70 %30.63 in10.0 miNNE (30°)3.5 mphClear
11:53 PM-14.8 °F-20.2 °F77 %30.62 in10.0 miCalmClear
Hourly data recorded from KFFM, located miles away from Ottertail, Minnesota







STORIES FROM OUR PARTNERS